Location: San Martino di Castrozza
(46.2667°N, 11.8000°E)
Time: 16:38:41
(UTC+00:00)

X-37B - Pass Details

Date: 23 April 2021
Orbit: 386 x 389 km, 45.0° (Epoch: 08 May)

Event Time Altitude Azimuth Distance (km) Brightness Sun altitude
Exits shadow 01:41:30 28° 99° (E) 757 2.3 -22.2°
Drops below altitude 10° 01:43:13 10° 90° (E) 1,415 3.9 -22.0°
Sets 01:45:18 0° 87° (E) 2,270 5.1 -21.8°
